Weather in Khvalynka

Russia / Primorsky Krai     44°38′13″N   132°53′25″E
temp.,
°C
wind,
m/s
gust,
m/s
humid.,
%
clouds,
%
prec.,
mm/h
press.,
hPa
HPBL,
m
6 august, fri
fri601:00+24ssw258199 0.1 1002105
04:00+23s368696 0.1 1002176
07:00+22ssw3794100 0.4 1003169
10:00+25wnw236798 0.8 1004483
13:00+30wsw2347100 0.1 10031293
16:00+32wnw344389 0.2 10011774
19:00+28s1159100 0.1 100112
22:00+24wnw1181100 0.4 100314
7 august, sat
sat701:00+21sse1196100 3.9 100335
04:00+20sw2397100 4.6 100458
07:00+20ssw2298100 2.3 100456
10:00+21wsw3596100 4.6 1006372
13:00+27w446026 0.1 10051202
16:00+29wnw45485 0.1 10051401
19:00+26n3562100 0.0 1006404
22:00+21ene378375 0.0 1007124
8 august, sun
sun801:00+19ne258999 0.0 100896
04:00+18nne249599 0.0 100880
07:00+18nne3794100 0.0 1009212
10:00+24nne4666100 0.0 1010614
13:00+28nne5646100 0.0 10081369
16:00+30ne4540100 0.0 10071897
19:00+22ese4983100 0.6 1008299
22:00+20e4987100 0.9 1009342
9 august, mon
mon901:00+19nne2486100 0.0 1009143
04:00+16n4788100 0.0 1009229
07:00+15n3687100 0.0 1010344
10:00+18n4669100 0.0 1009627
13:00+20n3556100 0.0 10091048
16:00+23nne5654100 0.0 10081432
19:00+21nne5858100 0.0 1008738
22:00+15nne4773100 0.0 1010243
10 august, tue
tue1001:00+13n368298 0.0 1010163
04:00+11nne25897 0.0 1011123
07:00+11nne13865 0.0 1011101
10:00+19nne45550 0.0 1010756
13:00+24nne444255 0.0 10101416
16:00+26ne4440100 0.0 10081885
19:00+23ne4651100 0.0 1008632
22:00+18nne51066100 0.0 1010373